Location: Gro� Glienicke
(52.4675°N, 13.1079°E)
Time: 02:33:56
(UTC+00:00)

ATLAS 5 CENTAUR R/B - Pass Details

Date: 06 July 2020
Orbit: 534 x 1124 km, 63.4° (Epoch: 30 July)

Event Time Altitude Azimuth Distance (km) Brightness Sun altitude
Rises 22:32:49 0° 272° (W) 2,841 5.1 -14.5°
Reaches altitude 10° 22:35:13 10° 284° (WNW) 2,009 4.5 -14.5°
Maximum altitude 22:39:09 28° 345° (NNW) 1,285 4.0 -14.6°
Drops below altitude 10° 22:43:39 10° 44° (NE) 2,311 5.0 -14.7°
Sets 22:46:36 0° 56° (NE) 3,355 5.7 -14.8°
